This demonstration page uses our WeatherBlox Daily Observations layout. Learn more.

Left ArrowRight Arrow

Hourly Observations for January 21, 2023

Temp ( °F °C ) Dew Point ( °F °C ) Humidity (%) Winds ( mph kmh ) Pressure ( in mb ) Visibility ( mi km ) Precip ( " mm )
12:52 am 00:52 Clear 27 -2.8 23 -5 85 85 Calm 30.24 1024 10 16 0.00 0.00
1:52 am 01:52 Clear 26 -3.3 23 -5 88 88 SE 3 6 30.24 1024 10 16 0.00 0.00
2:52 am 02:52 Clear 27 -2.8 23 -5 85 85 Calm 30.22 1024 10 16 0.00 0.00
3:52 am 03:52 Clear 26 -3.3 22 -5.6 84 84 SSE 7 11 30.20 1023 10 16 0.00 0.00
4:52 am 04:52 Clear 29 -1.7 24 -4.4 82 82 ESE 6 9 30.18 1022 10 16 0.00 0.00
5:52 am 05:52 Clear 29 -1.7 24 -4.4 82 82 SE 5 7 30.18 1022 10 16 0.00 0.00
6:52 am 06:52 Clear 27 -2.8 22 -5.6 81 81 S 6 9 30.19 1022 10 16 0.00 0.00
7:52 am 07:52 Cloudy 30 -1.1 25 -3.9 81 81 SSE 9 15 30.18 1022 10 16 0.00 0.00
8:52 am 08:52 Cloudy 32 0 26 -3.3 78 78 SSE 14 22 30.18 1022 10 16 0.00 0.00
9:52 am 09:52 Mostly Sunny 36 2.2 28 -2.2 73 73 SSE 17 28 30.18 1022 10 16 0.00 0.00
10:52 am 10:52 Mostly Cloudy 37 2.8 27 -2.8 67 67 SE 16 26 30.15 1021 10 16 0.00 0.00
11:52 am 11:52 Cloudy 42 5.6 27 -2.8 55 55 SSE 12 19 30.14 1021 10 16 0.00 0.00
12:52 pm 12:52 Cloudy 42 5.6 27 -2.8 55 55 SSE 10 17 30.08 1019 10 16 0.00 0.00
1:52 pm 13:52 Cloudy 43 6.1 26 -3.3 51 51 ESE 9 15 30.01 1016 10 16 0.00 0.00
2:52 pm 14:52 Mostly Cloudy 43 6.1 27 -2.8 53 53 ESE 3 6 30.00 1016 10 16 0.00 0.00
3:52 pm 15:52 Cloudy with Light Rain 42 5.6 29 -1.7 59 59 S 8 13 30.03 1017 10 16 0.01 0.13
4:40 pm 16:40 Cloudy with Light Rain 39 3.9 30 -1.1 70 70 SE 14 22 30.02 1017 8 13 0.01 0.13
4:52 pm 16:52 Cloudy with Light Rain 38 3.3 31 -0.6 76 76 ESE 9 15 30.00 1016 6 10 0.01 0.13
5:50 pm 17:50 Cloudy with Light Rain 34 1 34 1 100 100 ESE 7 11 30.03 1017 8 13 0.04 1.02
5:52 pm 17:52 Cloudy with Light Rain 34 1.1 33 0.6 96 96 ESE 7 11 30.00 1016 9 14 0.04 1.02
6:12 pm 18:12 Cloudy with Light Rain 35 1.7 33 0.6 92 92 E 8 13 30.02 1017 7 11 0.01 0.25
6:38 pm 18:38 Cloudy with Light Rain 35 1.7 33 0.6 92 92 ESE 12 19 30.01 1016 5 8 0.01 0.25
6:52 pm 18:52 Cloudy with Mist and Fog 35 1.7 33 0.6 92 92 ESE 8 13 29.98 1015 6 10 0.01 0.25
7:44 pm 19:44 Cloudy with Light Rain 35 1.7 33 0.6 92 92 ESE 6 9 30.01 1016 7 11 0.01 0.13
7:52 pm 19:52 Cloudy with Light Rain 35 1.7 33 0.6 92 92 ESE 6 9 29.98 1015 7 11 0.01 0.13
8:52 pm 20:52 Cloudy with Light Rain 35 1.7 33 0.6 92 92 ESE 5 7 29.96 1015 10 16 0.01 0.25
9:52 pm 21:52 Cloudy 35 1.7 33 0.6 92 92 ESE 5 7 29.92 1013 10 16 0.01 0.13
10:52 pm 22:52 Cloudy 35 1.7 33 0.6 92 92 SE 7 11 29.91 1013 10 16 0.00 0.00
11:31 pm 23:31 Cloudy 35 1.7 34 1.1 96 96 Calm 29.93 1014 10 16 0.00 0.00
11:52 pm 23:52 Cloudy 35 1.7 33 0.6 92 92 Calm 29.90 1012 10 16 0.00 0.00

Powered by AerisWeather